TimeCDT,TemperatureF,Dew PointF,Humidity,Sea Level PressureIn,VisibilityMPH,Wind Direction,Wind SpeedMPH,Gust SpeedMPH,PrecipitationIn,Events,Conditions,WindDirDegrees,DateUTC
12:15 AM,65.7,63.9,94,30.12,7.0,NE,6.9,-,N/A,,Overcast,50,2014-04-18 05:15:00
12:35 AM,65.7,63.7,93,30.13,10.0,NE,5.8,-,N/A,,Overcast,50,2014-04-18 05:35:00
12:55 AM,65.8,63.7,93,30.14,10.0,NE,5.8,-,N/A,,Overcast,40,2014-04-18 05:55:00
1:15 AM,65.8,63.5,92,30.13,10.0,NNE,4.6,-,N/A,,Overcast,30,2014-04-18 06:15:00
1:35 AM,65.8,63.7,93,30.13,10.0,Calm,Calm,-,N/A,,Overcast,0,2014-04-18 06:35:00
1:55 AM,65.7,63.9,94,30.13,10.0,NNE,3.5,-,N/A,,Overcast,30,2014-04-18 06:55:00
2:15 AM,65.7,63.7,93,30.12,10.0,NE,4.6,-,N/A,,Overcast,40,2014-04-18 07:15:00
2:35 AM,65.8,63.7,93,30.12,10.0,NE,5.8,-,N/A,,Overcast,40,2014-04-18 07:35:00
2:55 AM,65.7,63.9,94,30.11,7.0,NNE,5.8,-,N/A,,Overcast,30,2014-04-18 07:55:00
3:15 AM,65.5,63.7,94,30.11,7.0,NNE,4.6,-,N/A,,Overcast,20,2014-04-18 08:15:00
3:35 AM,65.3,63.5,94,30.11,7.0,NNE,5.8,-,N/A,,Overcast,20,2014-04-18 08:35:00
3:55 AM,65.3,63.5,94,30.11,7.0,NNE,6.9,-,N/A,,Overcast,20,2014-04-18 08:55:00
4:15 AM,64.9,63.1,94,30.11,7.0,NNE,6.9,-,N/A,,Overcast,20,2014-04-18 09:15:00
4:35 AM,64.8,63.1,94,30.10,7.0,NNE,6.9,-,N/A,,Overcast,30,2014-04-18 09:35:00
4:55 AM,64.6,62.8,94,30.11,7.0,NNE,6.9,-,N/A,,Overcast,30,2014-04-18 09:55:00
5:15 AM,64.6,62.8,94,30.11,7.0,NNE,8.1,-,N/A,,Overcast,30,2014-04-18 10:15:00
5:35 AM,64.4,62.6,94,30.11,7.0,NNE,5.8,-,N/A,,Overcast,20,2014-04-18 10:35:00
5:55 AM,64.4,62.6,94,30.11,7.0,NNE,8.1,-,N/A,,Overcast,20,2014-04-18 10:55:00
6:15 AM,64.4,62.6,94,30.12,7.0,NNE,6.9,-,N/A,,Overcast,20,2014-04-18 11:15:00
6:35 AM,63.9,61.7,93,30.12,7.0,NNE,8.1,-,N/A,,Overcast,30,2014-04-18 11:35:00
6:55 AM,63.7,61.3,92,30.13,10.0,NNE,9.2,-,N/A,,Overcast,30,2014-04-18 11:55:00
7:15 AM,63.7,61.3,92,30.14,7.0,NNE,9.2,-,N/A,,Overcast,30,2014-04-18 12:15:00
7:35 AM,63.7,61.2,91,30.15,7.0,NNE,9.2,-,N/A,,Overcast,30,2014-04-18 12:35:00
7:55 AM,63.7,61.0,91,30.15,7.0,NNE,9.2,-,N/A,,Overcast,20,2014-04-18 12:55:00
8:15 AM,63.9,61.0,90,30.16,7.0,NNE,9.2,-,N/A,,Overcast,30,2014-04-18 13:15:00
8:35 AM,65.1,61.9,89,30.16,7.0,NNE,9.2,-,N/A,,Overcast,30,2014-04-18 13:35:00
8:55 AM,66.2,62.1,86,30.16,7.0,NNE,10.4,-,N/A,,Mostly Cloudy,30,2014-04-18 13:55:00
9:15 AM,67.1,62.6,85,30.17,10.0,NE,9.2,-,N/A,,Overcast,40,2014-04-18 14:15:00
9:35 AM,68.2,62.8,83,30.16,7.0,NE,9.2,-,N/A,,Overcast,40,2014-04-18 14:35:00
9:55 AM,68.5,62.8,82,30.17,10.0,NE,8.1,-,N/A,,Overcast,40,2014-04-18 14:55:00
10:15 AM,69.1,62.6,80,30.18,10.0,NE,8.1,-,N/A,,Overcast,40,2014-04-18 15:15:00
10:35 AM,69.8,62.6,78,30.18,10.0,NE,9.2,-,N/A,,Overcast,50,2014-04-18 15:35:00
11:15 AM,71.4,62.4,73,30.19,10.0,ENE,11.5,-,N/A,,Overcast,70,2014-04-18 16:15:00
11:35 AM,73.2,62.4,69,30.18,10.0,East,9.2,17.3,N/A,,Mostly Cloudy,80,2014-04-18 16:35:00
11:55 AM,74.3,62.1,65,30.18,10.0,ENE,11.5,-,N/A,,Scattered Clouds,70,2014-04-18 16:55:00
12:15 PM,75.2,61.0,61,30.18,10.0,ENE,11.5,-,N/A,,Scattered Clouds,60,2014-04-18 17:15:00
12:35 PM,75.6,61.2,61,30.18,10.0,NE,5.8,-,N/A,,Mostly Cloudy,40,2014-04-18 17:35:00
12:55 PM,77.2,60.8,57,30.17,10.0,NNE,9.2,-,N/A,,Mostly Cloudy,30,2014-04-18 17:55:00
1:15 PM,78.3,60.6,54,30.15,10.0,ENE,9.2,16.1,N/A,,Scattered Clouds,60,2014-04-18 18:15:00
1:35 PM,79.9,60.3,51,30.15,10.0,NNE,6.9,-,N/A,,Scattered Clouds,30,2014-04-18 18:35:00
1:55 PM,79.9,59.5,50,30.14,10.0,NNE,6.9,-,N/A,,Scattered Clouds,30,2014-04-18 18:55:00
2:15 PM,81.1,60.1,49,30.13,10.0,East,6.9,-,N/A,,Scattered Clouds,80,2014-04-18 19:15:00
2:35 PM,79.7,59.4,50,30.12,10.0,NE,8.1,-,N/A,,Scattered Clouds,40,2014-04-18 19:35:00
2:55 PM,80.1,58.6,48,30.12,10.0,East,9.2,-,N/A,,Mostly Cloudy,100,2014-04-18 19:55:00
3:15 PM,79.2,58.5,49,30.11,10.0,East,10.4,-,N/A,,Overcast,80,2014-04-18 20:15:00
3:35 PM,79.5,59.4,50,30.10,10.0,East,13.8,18.4,N/A,,Overcast,100,2014-04-18 20:35:00
3:55 PM,79.5,58.6,49,30.10,7.0,East,11.5,-,N/A,,Overcast,90,2014-04-18 20:55:00
4:15 PM,80.8,58.3,46,30.10,10.0,East,11.5,-,N/A,,Mostly Cloudy,90,2014-04-18 21:15:00
4:35 PM,79.7,56.7,45,30.10,10.0,ESE,11.5,-,N/A,,Overcast,110,2014-04-18 21:35:00
4:55 PM,78.4,55.0,44,30.09,10.0,East,12.7,17.3,N/A,,Overcast,90,2014-04-18 21:55:00
5:15 PM,79.0,56.1,45,30.08,10.0,ESE,13.8,19.6,N/A,,Scattered Clouds,110,2014-04-18 22:15:00
5:35 PM,78.8,56.5,46,30.09,10.0,ESE,8.1,18.4,N/A,,Clear,110,2014-04-18 22:35:00
5:55 PM,78.3,56.8,48,30.08,10.0,East,11.5,-,N/A,,Clear,100,2014-04-18 22:55:00
6:15 PM,77.7,56.7,48,30.08,10.0,ESE,12.7,-,N/A,,Clear,120,2014-04-18 23:15:00
6:35 PM,76.8,56.5,49,30.09,10.0,ESE,12.7,-,N/A,,Clear,120,2014-04-18 23:35:00
6:55 PM,76.1,56.3,50,30.08,10.0,ESE,11.5,-,N/A,,Clear,120,2014-04-18 23:55:00
7:15 PM,75.2,56.3,52,30.09,10.0,SE,12.7,-,N/A,,Clear,130,2014-04-19 00:15:00
7:35 PM,73.9,55.8,53,30.09,10.0,SE,10.4,-,N/A,,Clear,130,2014-04-19 00:35:00
7:55 PM,72.5,55.4,55,30.10,10.0,SE,11.5,-,N/A,,Clear,140,2014-04-19 00:55:00
8:15 PM,71.4,55.4,57,30.10,10.0,SE,9.2,-,N/A,,Clear,130,2014-04-19 01:15:00
8:35 PM,70.3,55.0,58,30.10,10.0,SE,9.2,-,N/A,,Clear,130,2014-04-19 01:35:00
8:55 PM,69.4,55.4,61,30.11,10.0,SE,9.2,-,N/A,,Clear,140,2014-04-19 01:55:00
9:15 PM,68.9,55.6,62,30.11,10.0,SSE,9.2,-,N/A,,Clear,150,2014-04-19 02:15:00
9:35 PM,68.0,55.6,64,30.11,10.0,SSE,5.8,-,N/A,,Clear,150,2014-04-19 02:35:00
9:55 PM,67.6,56.3,67,30.12,10.0,SSE,5.8,-,N/A,,Clear,150,2014-04-19 02:55:00
10:15 PM,66.6,56.5,70,30.13,10.0,SSE,5.8,-,N/A,,Clear,160,2014-04-19 03:15:00
10:35 PM,66.2,56.8,72,30.13,10.0,SSE,5.8,-,N/A,,Clear,160,2014-04-19 03:35:00
10:55 PM,64.9,56.8,75,30.14,10.0,South,5.8,-,N/A,,Clear,180,2014-04-19 03:55:00
11:15 PM,64.0,55.9,75,30.15,10.0,SW,3.5,-,N/A,,Mostly Cloudy,220,2014-04-19 04:15:00
11:35 PM,63.5,55.9,76,30.14,10.0,Calm,Calm,-,N/A,,Scattered Clouds,0,2014-04-19 04:35:00
11:55 PM,63.5,56.3,77,30.15,10.0,Calm,Calm,-,N/A,,Clear,0,2014-04-19 04:55:00